Jordan, MT

4:08 AM MDT on April 19, 2018 (GMT -0600)
Jordan

Weather History for KJDN - May, 2014

Change the Weather History Date:

Saturday, May 10, 2014

  Actual Average Record
Temperature  
Mean Temperature 42 °F 51 °F  
Max Temperature 50 °F 65 °F 91 °F (1906)
Min Temperature 33 °F 37 °F 15 °F (1946)
Degree Days  
Heating Degree Days 23 14  
Month to date heating degree days 192 156  
Since 1 July heating degree days 8253 7890  
Cooling Degree Days 0 0  
Month to date cooling degree days 0 0  
Year to date cooling degree days 0 0  
Moisture  
Dew Point 38 °F    
Average Humidity 84    
Maximum Humidity 93    
Minimum Humidity 74    
Precipitation  
Precipitation 0.94 in 0.06 in 1.05 in (2016)
Month to date precipitation 1.22 0.56  
Year to date precipitation 2.82 2.64  
Snow  
Snow 0.00 in - - ()
Month to date snowfall 0.0  
Since 1 July snowfall 0.0  
Snow Depth 0.00 in    
Sea Level Pressure  
Sea Level Pressure 29.86 in    
Wind  
Wind Speed 15 mph (NW)    
Max Wind Speed 30 mph    
Max Gust Speed 36 mph    
T = Trace of Precipitation, MM = Missing Value Source: NWS Daily Summary

Daily Weather History Graph

Daily Weather History Graph

Search for Another Location

Airport or City:

Astronomy

May. 10, 2014 Rise Set
Actual Time 5:37 AM MDT 8:31 PM MDT
Civil Twilight 5:02 AM MDT 9:07 PM MDT
Nautical Twilight 4:16 AM MDT 9:52 PM MDT
Astronomical Twilight 3:22 AM MDT 10:47 PM MDT
Moon 4:13 PM MDT (5/10) 3:30 AM MDT (5/10)
Length of Visible Light 16h 04m
Length of Day
14h 53m
Waxing Gibbous, 82% of the Moon is Illuminated
May 10
Waxing Gibbous
May 14
Full
May 21
Last Quarter
May 28
New
Jun 5
First Quarter

Hourly Weather History & Observations

Time (MDT) Temp. Windchill Dew Point Humidity Pressure Visibility Wind Dir Wind Speed Gust Speed Precip Events Conditions
12:48 AM 50.0 °F - 43.0 °F 77% 29.66 in - WNW 16.1 mph - N/A   Unknown
1:48 AM 48.9 °F - 43.0 °F 80% 29.65 in - WNW 12.7 mph - N/A   Unknown
2:48 AM 48.0 °F - 43.0 °F 83% 29.66 in - WNW 15.0 mph - N/A   Unknown
3:48 AM 46.9 °F - 44.1 °F 90% 29.68 in - WNW 11.5 mph - 0.01 in   Unknown
4:48 AM 46.0 °F 40.6 °F 44.1 °F 93% 29.68 in - West 11.5 mph - 0.01 in   Unknown
5:48 AM 46.0 °F 40.2 °F 44.1 °F 93% 29.69 in - WNW 12.7 mph - 0.01 in   Unknown
6:48 AM 46.0 °F 39.9 °F 44.1 °F 93% 29.69 in - WNW 13.8 mph - 0.03 in   Unknown
7:48 AM 46.0 °F 38.5 °F 44.1 °F 93% 29.70 in - WNW 19.6 mph - 0.02 in   Unknown
8:48 AM 44.1 °F 35.7 °F 42.1 °F 93% 29.73 in - NNW 20.7 mph 27.6 mph 0.05 in   Unknown
9:48 AM 41.0 °F 31.1 °F 39.0 °F 93% 29.76 in - NW 23.0 mph - 0.15 in   Unknown
10:48 AM 39.9 °F 30.8 °F 37.9 °F 93% 29.78 in - NW 18.4 mph - 0.15 in   Unknown
11:48 AM 35.1 °F 23.5 °F 34.0 °F 96% 29.84 in - NNW 21.9 mph 27.6 mph 0.10 in   Unknown
12:48 PM 33.8 °F 22.2 °F 32.0 °F 93% 29.86 in - NNW 20.7 mph 26.5 mph 0.11 in   Unknown
1:48 PM 35.1 °F 25.2 °F 34.0 °F 96% 29.89 in - NNW 16.1 mph - 0.05 in   Unknown
2:48 PM 36.0 °F 26.0 °F 34.0 °F 93% 29.92 in - NNW 17.3 mph - 0.07 in   Unknown
3:48 PM 36.0 °F 26.3 °F 34.0 °F 93% 29.94 in - NNW 16.1 mph - 0.07 in   Unknown
4:48 PM 37.9 °F 27.6 °F 36.0 °F 93% 29.96 in - North 20.7 mph - 0.04 in   Unknown
5:48 PM 37.9 °F 29.2 °F 35.1 °F 89% 29.99 in - North 15.0 mph - 0.03 in   Unknown
6:48 PM 37.9 °F 30.5 °F 36.0 °F 93% 30.02 in - NNW 11.5 mph - 0.01 in   Unknown
7:48 PM 36.0 °F 29.0 °F 34.0 °F 93% 30.05 in - NW 9.2 mph - 0.02 in   Unknown
8:48 PM 37.0 °F 28.5 °F 35.1 °F 93% 30.08 in - NNW 13.8 mph - 0.01 in   Unknown
9:48 PM 37.0 °F 28.9 °F 35.1 °F 93% 30.13 in - NNW 12.7 mph - N/A   Unknown
10:48 PM 37.0 °F 30.4 °F 36.0 °F 96% 30.15 in - NW 9.2 mph - N/A   Unknown
11:48 PM 37.0 °F 31.6 °F 36.0 °F 96% 30.17 in - WNW 6.9 mph - N/A   Unknown